JBU938 MMSD-KJFK

Flight info

Callsign JBU938
Flight time 4h 18m
Altitude 37000
Route UKUXA1A UKUXA DCT CUU DCT AMUKI DCT WORTO DCT LOWGO J42 ABI DCT TIKYS DCT CAMAL DCT ECIGE DCT VISQA DCT LAJUG DCT LAFOX DCT KONGO Q34 SITTR Q108 SIE CAMRN5
Aircraft A21N/M-SDE2E3FGHIRWXY/LB1

Departure

Time 2026-05-08 16:11
Airport Los Cabos International Airport (MMSD)

Arrival

Time 2026-05-08 20:29
Airport John F. Kennedy International Airport (KJFK)
Time Latitude Longitude Altitude Speed Heading
2026-05-08 15:38 23.16107 -109.71824 368 ft 0 kts 84°
2026-05-08 16:01 23.16106 -109.71829 368 ft 2 kts 84°
2026-05-08 16:01 23.16105 -109.71845 369 ft 2 kts 84°
2026-05-08 16:01 23.16104 -109.71856 370 ft 2 kts 85°
2026-05-08 16:02 23.16097 -109.71870 371 ft 2 kts 34°
2026-05-08 16:02 23.16084 -109.71875 371 ft 0 kts 356°
2026-05-08 16:02 23.16082 -109.71874 371 ft 0 kts 354°
2026-05-08 16:04 23.16085 -109.71875 371 ft 2 kts 355°
2026-05-08 16:04 23.16121 -109.71883 372 ft 7 kts 325°
2026-05-08 16:05 23.16122 -109.71947 375 ft 11 kts 229°
2026-05-08 16:05 23.16020 -109.71953 374 ft 19 kts 174°
2026-05-08 16:05 23.15856 -109.71936 372 ft 25 kts 174°
2026-05-08 16:05 23.15678 -109.71918 368 ft 26 kts 175°
2026-05-08 16:06 23.15492 -109.71899 367 ft 26 kts 175°
2026-05-08 16:06 23.15302 -109.71879 362 ft 27 kts 174°
2026-05-08 16:06 23.15108 -109.71860 360 ft 28 kts 175°
2026-05-08 16:06 23.14910 -109.71839 353 ft 29 kts 174°
2026-05-08 16:07 23.14706 -109.71818 347 ft 28 kts 174°
2026-05-08 16:07 23.14503 -109.71797 339 ft 29 kts 175°
2026-05-08 16:07 23.14302 -109.71777 330 ft 29 kts 175°
2026-05-08 16:07 23.14103 -109.71756 322 ft 27 kts 175°
2026-05-08 16:08 23.13936 -109.71737 318 ft 15 kts 177°
2026-05-08 16:08 23.13888 -109.71778 319 ft 8 kts 262°
2026-05-08 16:08 23.13883 -109.71824 322 ft 4 kts 264°
2026-05-08 16:08 23.13882 -109.71838 322 ft 0 kts 264°
2026-05-08 16:09 23.13881 -109.71845 323 ft 2 kts 264°
2026-05-08 16:09 23.13877 -109.71890 325 ft 8 kts 264°
2026-05-08 16:09 23.13887 -109.71921 327 ft 1 kts 328°
2026-05-08 16:10 23.13981 -109.71940 332 ft 42 kts 354°
2026-05-08 16:10 23.14498 -109.71999 352 ft 105 kts 354°
2026-05-08 16:10 23.15416 -109.72103 378 ft 157 kts 353°
2026-05-08 16:10 23.16613 -109.72232 640 ft 178 kts 354°
2026-05-08 16:11 23.17835 -109.72331 1271 ft 178 kts 353°
2026-05-08 16:11 23.19100 -109.72476 1773 ft 188 kts 352°
2026-05-08 16:11 23.20435 -109.72649 2150 ft 199 kts 353°
2026-05-08 16:11 23.21860 -109.72804 2381 ft 211 kts 357°
2026-05-08 16:12 23.23337 -109.72370 2505 ft 233 kts 32°
2026-05-08 16:12 23.24442 -109.71018 2750 ft 252 kts 65°
2026-05-08 16:12 23.24853 -109.69125 3071 ft 265 kts 78°
2026-05-08 16:12 23.25219 -109.67127 3622 ft 268 kts 76°
2026-05-08 16:13 23.25621 -109.65166 4224 ft 269 kts 75°
2026-05-08 16:13 23.26037 -109.63158 4813 ft 273 kts 76°
2026-05-08 16:13 23.26454 -109.61128 5374 ft 278 kts 76°
2026-05-08 16:13 23.26874 -109.59061 5903 ft 284 kts 77°
2026-05-08 16:14 23.27296 -109.56954 6453 ft 289 kts 76°
2026-05-08 16:14 23.27735 -109.54786 6987 ft 294 kts 77°
2026-05-08 16:14 23.28177 -109.52612 7543 ft 298 kts 77°
2026-05-08 16:14 23.28616 -109.50423 8072 ft 302 kts 77°
2026-05-08 16:15 23.29068 -109.48168 8604 ft 305 kts 78°
2026-05-08 16:15 23.29522 -109.45902 9108 ft 310 kts 78°
2026-05-08 16:15 23.29976 -109.43607 9640 ft 314 kts 78°
2026-05-08 16:15 23.30436 -109.41270 10149 ft 317 kts 78°
2026-05-08 16:16 23.30907 -109.38896 10457 ft 328 kts 79°
2026-05-08 16:16 23.31393 -109.36411 10698 ft 342 kts 79°
2026-05-08 16:16 23.31899 -109.33819 10949 ft 355 kts 79°
2026-05-08 16:16 23.32431 -109.31116 11173 ft 367 kts 79°
2026-05-08 16:17 23.32977 -109.28368 11436 ft 376 kts 79°
2026-05-08 16:17 23.33523 -109.25600 11915 ft 379 kts 79°
2026-05-08 16:17 23.34073 -109.22804 12428 ft 380 kts 78°
2026-05-08 16:17 23.34640 -109.19948 12880 ft 384 kts 78°
2026-05-08 16:18 23.35195 -109.17107 13357 ft 386 kts 78°
2026-05-08 16:18 23.35761 -109.14269 13775 ft 389 kts 78°
2026-05-08 16:18 23.36335 -109.11389 14220 ft 392 kts 78°
2026-05-08 16:18 23.36907 -109.08471 14682 ft 394 kts 78°
2026-05-08 16:19 23.37482 -109.05515 15102 ft 397 kts 78°
2026-05-08 16:19 23.38053 -109.02588 15551 ft 400 kts 79°
2026-05-08 16:19 23.38637 -108.99599 16012 ft 403 kts 78°
2026-05-08 16:19 23.39222 -108.96606 16446 ft 405 kts 78°
2026-05-08 16:20 23.39813 -108.93590 16866 ft 407 kts 78°
2026-05-08 16:20 23.40400 -108.90598 17252 ft 410 kts 78°
2026-05-08 16:20 23.41362 -108.87647 17584 ft 413 kts 58°
2026-05-08 16:20 23.43246 -108.85318 17946 ft 411 kts 34°
2026-05-08 16:21 23.45729 -108.83807 18369 ft 407 kts 21°
2026-05-08 16:21 23.48334 -108.82516 18737 ft 411 kts 21°
2026-05-08 16:21 23.50933 -108.81226 19085 ft 414 kts 21°
2026-05-08 16:21 23.53558 -108.79900 19435 ft 416 kts 21°
2026-05-08 16:22 23.56196 -108.78551 19776 ft 420 kts 21°
2026-05-08 16:22 23.58863 -108.77174 20129 ft 422 kts 21°
2026-05-08 16:22 23.61502 -108.75804 20465 ft 425 kts 22°
2026-05-08 16:22 23.64195 -108.74402 20805 ft 427 kts 22°
2026-05-08 16:23 23.66878 -108.72998 21092 ft 429 kts 22°
2026-05-08 16:23 23.69621 -108.71555 21402 ft 433 kts 22°
2026-05-08 16:23 23.72306 -108.70140 21743 ft 434 kts 22°
2026-05-08 16:23 23.75046 -108.68697 22083 ft 436 kts 22°
2026-05-08 16:24 23.77789 -108.67256 22381 ft 438 kts 22°
2026-05-08 16:24 23.80583 -108.65792 22678 ft 441 kts 22°
2026-05-08 16:24 23.83363 -108.64335 23010 ft 443 kts 22°
2026-05-08 16:24 23.86140 -108.62878 23288 ft 447 kts 22°
2026-05-08 16:25 23.88973 -108.61391 23579 ft 450 kts 21°
2026-05-08 16:25 23.91806 -108.59903 23880 ft 452 kts 21°
2026-05-08 16:25 23.94669 -108.58398 24194 ft 454 kts 21°
2026-05-08 16:25 23.97525 -108.56895 24481 ft 457 kts 21°
2026-05-08 16:26 24.00386 -108.55388 24764 ft 458 kts 21°
2026-05-08 16:26 24.03305 -108.53851 25031 ft 460 kts 21°
2026-05-08 16:26 24.06216 -108.52316 25293 ft 463 kts 21°
2026-05-08 16:26 24.09140 -108.50774 25555 ft 466 kts 21°
2026-05-08 16:27 24.12056 -108.49234 25820 ft 468 kts 21°
2026-05-08 16:27 24.15006 -108.47676 26082 ft 471 kts 20°
2026-05-08 16:27 24.17960 -108.46115 26344 ft 472 kts 20°
2026-05-08 16:27 24.20954 -108.44533 26578 ft 474 kts 20°
2026-05-08 16:28 24.23927 -108.42962 26798 ft 476 kts 20°
2026-05-08 16:28 24.26935 -108.41371 27015 ft 479 kts 20°
2026-05-08 16:28 24.29931 -108.39786 27235 ft 481 kts 20°
2026-05-08 16:28 24.32980 -108.38171 27479 ft 483 kts 20°
2026-05-08 16:29 24.36006 -108.36566 27696 ft 485 kts 20°
2026-05-08 16:29 24.39045 -108.34952 27895 ft 487 kts 20°
2026-05-08 16:29 24.42139 -108.33310 28060 ft 490 kts 20°
2026-05-08 16:29 24.45228 -108.31671 28274 ft 492 kts 20°
2026-05-08 16:30 24.48341 -108.30016 28503 ft 493 kts 20°
2026-05-08 16:30 24.51426 -108.28373 28713 ft 494 kts 20°
2026-05-08 16:30 24.54556 -108.26704 28857 ft 497 kts 20°
2026-05-08 16:30 24.57701 -108.25034 29012 ft 499 kts 20°
2026-05-08 16:31 24.60865 -108.23354 29213 ft 500 kts 20°
2026-05-08 16:31 24.63988 -108.21693 29382 ft 503 kts 20°
2026-05-08 16:31 24.67177 -108.19994 29580 ft 503 kts 20°
2026-05-08 16:31 24.70332 -108.18310 29741 ft 506 kts 20°
2026-05-08 16:32 24.73535 -108.16598 29894 ft 509 kts 20°
2026-05-08 16:32 24.76732 -108.14888 30079 ft 511 kts 20°
2026-05-08 16:32 24.79971 -108.13157 30252 ft 512 kts 20°
2026-05-08 16:32 24.83186 -108.11437 30451 ft 513 kts 20°
2026-05-08 16:33 24.86399 -108.09719 30674 ft 514 kts 20°
2026-05-08 16:33 24.89616 -108.07998 30891 ft 515 kts 20°
2026-05-08 16:33 24.92886 -108.06245 31115 ft 514 kts 20°
2026-05-08 16:33 24.96114 -108.04517 31311 ft 515 kts 20°
2026-05-08 16:34 24.99331 -108.02798 31497 ft 516 kts 19°
2026-05-08 16:34 25.02573 -108.01060 31712 ft 517 kts 19°
2026-05-08 16:34 25.05853 -107.99303 31956 ft 517 kts 19°
2026-05-08 16:34 25.09158 -107.97533 32153 ft 519 kts 19°
2026-05-08 16:35 25.12416 -107.95782 32327 ft 519 kts 19°
2026-05-08 16:35 25.15692 -107.94027 32531 ft 520 kts 19°
2026-05-08 16:35 25.18940 -107.92288 32755 ft 519 kts 19°
2026-05-08 16:35 25.22227 -107.90520 32938 ft 521 kts 19°
2026-05-08 16:36 25.25501 -107.88755 33169 ft 519 kts 19°
2026-05-08 16:36 25.28758 -107.86996 33382 ft 520 kts 19°
2026-05-08 16:36 25.32025 -107.85233 33656 ft 520 kts 19°
2026-05-08 16:36 25.35257 -107.83488 33962 ft 519 kts 19°
2026-05-08 16:37 25.38509 -107.81731 34260 ft 518 kts 19°
2026-05-08 16:37 25.41798 -107.79957 34547 ft 517 kts 19°
2026-05-08 16:37 25.45048 -107.78198 34823 ft 515 kts 19°
2026-05-08 16:37 25.48246 -107.76469 35059 ft 515 kts 19°
2026-05-08 16:38 25.51441 -107.74742 35308 ft 514 kts 19°
2026-05-08 16:38 25.54706 -107.72978 35526 ft 514 kts 19°
2026-05-08 16:38 25.57914 -107.71246 35702 ft 514 kts 19°
2026-05-08 16:38 25.61077 -107.69534 35812 ft 516 kts 19°
2026-05-08 16:39 25.64322 -107.67779 35939 ft 518 kts 19°
2026-05-08 16:39 25.67531 -107.66037 36097 ft 519 kts 19°
2026-05-08 16:39 25.70773 -107.64278 36276 ft 519 kts 19°
2026-05-08 16:39 25.74001 -107.62522 36419 ft 520 kts 19°
2026-05-08 16:40 25.77301 -107.60732 36532 ft 522 kts 19°
2026-05-08 16:40 25.80558 -107.58960 36664 ft 523 kts 19°
2026-05-08 16:40 25.83845 -107.57171 36802 ft 524 kts 19°
2026-05-08 16:40 25.87111 -107.55391 36893 ft 525 kts 19°
2026-05-08 16:41 25.90402 -107.53597 37017 ft 526 kts 18°
2026-05-08 16:41 25.93681 -107.51810 37115 ft 526 kts 19°
2026-05-08 16:42 26.03624 -107.46386 37117 ft 528 kts 19°
2026-05-08 16:42 26.10253 -107.42744 37162 ft 531 kts 21°
2026-05-08 16:43 26.16399 -107.38006 37227 ft 540 kts 32°
2026-05-08 16:43 26.22243 -107.32862 37268 ft 540 kts 34°
2026-05-08 16:44 26.28110 -107.27631 37308 ft 541 kts 34°
2026-05-08 16:44 26.34025 -107.22372 37321 ft 541 kts 34°
2026-05-08 16:45 26.39776 -107.17248 37320 ft 541 kts 34°
2026-05-08 16:45 26.45570 -107.12090 37335 ft 541 kts 34°
2026-05-08 16:46 26.51457 -107.06844 37343 ft 541 kts 34°
2026-05-08 16:46 26.57345 -107.01591 37350 ft 541 kts 34°
2026-05-08 16:47 26.63169 -106.96390 37357 ft 540 kts 34°
2026-05-08 16:47 26.69003 -106.91171 37355 ft 541 kts 34°
2026-05-08 16:48 26.74836 -106.85956 37352 ft 541 kts 34°
2026-05-08 16:48 26.80784 -106.80628 37347 ft 541 kts 34°
2026-05-08 16:49 26.86612 -106.75404 37339 ft 540 kts 34°
2026-05-08 16:49 26.92436 -106.70168 37331 ft 542 kts 34°
2026-05-08 16:50 26.98283 -106.64900 37321 ft 541 kts 34°
2026-05-08 16:50 27.03955 -106.59786 37309 ft 541 kts 34°
2026-05-08 16:51 27.09793 -106.54517 37298 ft 540 kts 34°
2026-05-08 16:51 27.15593 -106.49268 37291 ft 540 kts 34°
2026-05-08 16:52 27.21270 -106.44138 37277 ft 540 kts 34°
2026-05-08 16:52 27.27154 -106.38805 37266 ft 539 kts 34°
2026-05-08 16:53 27.35944 -106.30816 37243 ft 538 kts 35°
2026-05-08 16:53 27.41802 -106.25487 37230 ft 539 kts 35°
2026-05-08 16:54 27.47634 -106.20175 37224 ft 538 kts 34°
2026-05-08 16:54 27.53462 -106.14862 37220 ft 538 kts 35°
2026-05-08 16:55 27.59288 -106.09534 37217 ft 537 kts 34°
2026-05-08 16:55 27.65091 -106.04224 37215 ft 537 kts 34°
2026-05-08 16:56 27.70880 -105.98921 37210 ft 537 kts 34°
2026-05-08 16:56 27.76720 -105.93561 37202 ft 536 kts 34°
2026-05-08 16:57 27.82537 -105.88229 37194 ft 536 kts 34°
2026-05-08 16:57 27.88324 -105.82913 37185 ft 536 kts 34°
2026-05-08 16:58 27.94126 -105.77573 37171 ft 536 kts 34°
2026-05-08 16:58 27.99919 -105.72231 37155 ft 535 kts 34°
2026-05-08 16:59 28.05713 -105.66884 37146 ft 536 kts 34°
2026-05-08 16:59 28.11535 -105.61502 37143 ft 537 kts 34°
2026-05-08 17:00 28.17353 -105.56113 37147 ft 536 kts 34°
2026-05-08 17:00 28.23136 -105.50741 37133 ft 535 kts 34°
2026-05-08 17:01 28.28890 -105.45393 37129 ft 535 kts 34°
2026-05-08 17:01 28.34664 -105.40015 37127 ft 534 kts 34°
2026-05-08 17:02 28.40416 -105.34656 37130 ft 533 kts 35°
2026-05-08 17:02 28.46149 -105.29310 37124 ft 534 kts 35°
2026-05-08 17:03 28.51898 -105.23933 37129 ft 533 kts 36°
2026-05-08 17:03 28.57629 -105.18565 37122 ft 533 kts 36°
2026-05-08 17:04 28.63362 -105.13181 37117 ft 532 kts 35°
2026-05-08 17:04 28.69073 -105.07820 37108 ft 532 kts 35°
2026-05-08 17:05 28.74784 -105.02453 37102 ft 532 kts 36°
2026-05-08 17:05 28.80522 -104.97049 37095 ft 531 kts 35°
2026-05-08 17:06 28.86210 -104.91692 37092 ft 530 kts 36°
2026-05-08 17:06 28.91914 -104.86305 37093 ft 530 kts 35°
2026-05-08 17:07 28.97621 -104.80912 37085 ft 529 kts 36°
2026-05-08 17:07 29.03337 -104.75503 37102 ft 529 kts 36°
2026-05-08 17:08 29.08982 -104.70147 37111 ft 527 kts 36°
2026-05-08 17:08 29.14623 -104.64785 37123 ft 527 kts 36°
2026-05-08 17:09 29.20315 -104.59376 37131 ft 526 kts 36°
2026-05-08 17:09 29.25961 -104.54000 37144 ft 525 kts 36°
2026-05-08 17:10 29.31596 -104.48624 37137 ft 525 kts 36°
2026-05-08 17:10 29.37222 -104.43247 37116 ft 525 kts 36°
2026-05-08 17:11 29.42827 -104.37883 37091 ft 524 kts 36°
2026-05-08 17:11 29.48443 -104.32497 37060 ft 524 kts 36°
2026-05-08 17:12 29.53879 -104.26882 37046 ft 527 kts 42°
2026-05-08 17:12 29.59034 -104.20861 37056 ft 528 kts 44°
2026-05-08 17:13 29.64163 -104.14793 37075 ft 527 kts 43°
2026-05-08 17:13 29.69310 -104.08724 37085 ft 526 kts 43°
2026-05-08 17:14 29.74457 -104.02664 37092 ft 527 kts 43°
2026-05-08 17:14 29.79551 -103.96654 37089 ft 526 kts 43°
2026-05-08 17:15 29.84687 -103.90588 37088 ft 527 kts 43°
2026-05-08 17:15 29.89812 -103.84526 37091 ft 525 kts 43°
2026-05-08 17:16 29.94891 -103.78510 37098 ft 525 kts 43°
2026-05-08 17:16 30.00023 -103.72424 37112 ft 524 kts 44°
2026-05-08 17:17 30.05103 -103.66381 37115 ft 525 kts 44°
2026-05-08 17:17 30.10168 -103.60343 37126 ft 525 kts 44°
2026-05-08 17:18 30.15257 -103.54277 37113 ft 524 kts 44°
2026-05-08 17:18 30.20357 -103.48187 37119 ft 524 kts 44°
2026-05-08 17:19 30.25433 -103.42117 37113 ft 525 kts 44°
2026-05-08 17:19 30.30505 -103.36038 37105 ft 523 kts 43°
2026-05-08 17:20 30.35575 -103.29955 37097 ft 524 kts 44°
2026-05-08 17:20 30.40647 -103.23856 37093 ft 523 kts 44°
2026-05-08 17:21 30.45705 -103.17821 37085 ft 521 kts 43°
2026-05-08 17:21 30.50837 -103.11862 37083 ft 521 kts 43°
2026-05-08 17:22 30.55962 -103.05898 37067 ft 522 kts 43°
2026-05-08 17:22 30.61116 -102.99869 37048 ft 520 kts 43°
2026-05-08 17:23 30.66205 -102.93904 37049 ft 520 kts 43°
2026-05-08 17:23 30.71308 -102.87917 37040 ft 520 kts 43°
2026-05-08 17:24 30.76426 -102.81898 37035 ft 520 kts 43°
2026-05-08 17:24 30.81478 -102.75953 37021 ft 519 kts 43°
2026-05-08 17:25 30.86579 -102.69939 37015 ft 518 kts 43°
2026-05-08 17:25 30.91621 -102.63981 37004 ft 517 kts 43°
2026-05-08 17:26 30.96695 -102.57972 36992 ft 517 kts 43°
2026-05-08 17:26 31.01759 -102.51971 37003 ft 518 kts 43°
2026-05-08 17:27 31.06803 -102.45982 36993 ft 518 kts 43°
2026-05-08 17:27 31.11868 -102.39960 37011 ft 518 kts 43°
2026-05-08 17:28 31.16951 -102.33915 36990 ft 517 kts 43°
2026-05-08 17:28 31.21982 -102.27916 37002 ft 518 kts 44°
2026-05-08 17:29 31.27024 -102.21887 36995 ft 518 kts 43°
2026-05-08 17:29 31.32043 -102.15888 37010 ft 518 kts 43°
2026-05-08 17:30 31.37082 -102.09851 37003 ft 518 kts 43°
2026-05-08 17:30 31.41986 -102.03638 37002 ft 519 kts 49°
2026-05-08 17:31 31.46209 -101.96787 37010 ft 521 kts 58°
2026-05-08 17:31 31.49869 -101.89475 36999 ft 520 kts 59°
2026-05-08 17:32 31.53475 -101.82113 36999 ft 520 kts 59°
2026-05-08 17:32 31.57102 -101.74752 37004 ft 521 kts 59°
2026-05-08 17:33 31.60752 -101.67374 36995 ft 520 kts 59°
2026-05-08 17:33 31.64410 -101.59973 37006 ft 521 kts 59°
2026-05-08 17:34 31.68055 -101.52586 36995 ft 521 kts 59°
2026-05-08 17:34 31.71694 -101.45205 36997 ft 522 kts 59°
2026-05-08 17:35 31.75334 -101.37801 36997 ft 521 kts 59°
2026-05-08 17:35 31.78967 -101.30390 36992 ft 520 kts 59°
2026-05-08 17:36 31.82588 -101.22997 37000 ft 520 kts 59°
2026-05-08 17:36 31.86199 -101.15608 36990 ft 520 kts 59°
2026-05-08 17:37 31.89807 -101.08207 36988 ft 520 kts 59°
2026-05-08 17:37 31.93415 -101.00793 36996 ft 519 kts 59°
2026-05-08 17:38 31.96998 -100.93411 37002 ft 519 kts 59°
2026-05-08 17:38 32.00590 -100.86003 37006 ft 520 kts 59°
2026-05-08 17:39 32.04180 -100.78574 37006 ft 519 kts 59°
2026-05-08 17:39 32.07787 -100.71101 36993 ft 521 kts 59°
2026-05-08 17:40 32.11366 -100.63676 36997 ft 521 kts 59°
2026-05-08 17:40 32.14942 -100.56239 36992 ft 521 kts 59°
2026-05-08 17:41 32.18528 -100.48753 37005 ft 521 kts 59°
2026-05-08 17:41 32.22100 -100.41290 36999 ft 522 kts 59°
2026-05-08 17:42 32.25665 -100.33818 37005 ft 523 kts 59°
2026-05-08 17:42 32.29268 -100.26253 37000 ft 522 kts 60°
2026-05-08 17:43 32.32835 -100.18761 36991 ft 523 kts 59°
2026-05-08 17:43 32.36408 -100.11243 36989 ft 523 kts 59°
2026-05-08 17:44 32.39957 -100.03744 36990 ft 524 kts 59°
2026-05-08 17:44 32.43505 -99.96230 36977 ft 524 kts 60°
2026-05-08 17:45 32.47044 -99.88701 36974 ft 524 kts 60°
2026-05-08 17:45 32.50632 -99.81186 36968 ft 524 kts 59°
2026-05-08 17:46 32.54258 -99.73696 36964 ft 525 kts 59°
2026-05-08 17:46 32.57909 -99.66143 36968 ft 525 kts 59°
2026-05-08 17:47 32.61556 -99.58555 36971 ft 525 kts 59°
2026-05-08 17:47 32.64578 -99.52250 36968 ft 526 kts 59°
2026-05-08 17:48 32.68786 -99.43456 36964 ft 526 kts 59°
2026-05-08 17:48 32.72400 -99.35876 36951 ft 526 kts 59°
2026-05-08 17:49 32.76006 -99.28315 36937 ft 526 kts 59°
2026-05-08 17:49 32.79603 -99.20751 36936 ft 527 kts 59°
2026-05-08 17:50 32.83207 -99.13148 36932 ft 527 kts 59°
2026-05-08 17:50 32.86796 -99.05570 36934 ft 528 kts 59°
2026-05-08 17:51 32.90397 -98.97930 36932 ft 528 kts 59°
2026-05-08 17:51 32.93984 -98.90318 36936 ft 529 kts 59°
2026-05-08 17:52 32.97602 -98.82642 36934 ft 529 kts 60°
2026-05-08 17:53 33.03001 -98.71130 36937 ft 529 kts 59°
2026-05-08 17:53 33.06578 -98.63482 36938 ft 529 kts 60°
2026-05-08 17:54 33.10161 -98.55792 36942 ft 529 kts 59°
2026-05-08 17:54 33.13734 -98.48118 36939 ft 529 kts 59°
2026-05-08 17:55 33.17329 -98.40394 36939 ft 529 kts 59°
2026-05-08 17:55 33.20914 -98.32682 36931 ft 530 kts 60°
2026-05-08 17:56 33.24501 -98.24940 36925 ft 530 kts 60°
2026-05-08 17:56 33.28081 -98.17188 36930 ft 530 kts 60°
2026-05-08 17:57 33.31651 -98.09440 36924 ft 530 kts 60°
2026-05-08 17:57 33.35210 -98.01720 36923 ft 531 kts 60°
2026-05-08 17:58 33.38783 -97.93938 36923 ft 531 kts 60°
2026-05-08 17:58 33.42334 -97.86179 36927 ft 531 kts 60°
2026-05-08 17:59 33.45894 -97.78388 36936 ft 532 kts 60°
2026-05-08 17:59 33.49440 -97.70623 36940 ft 532 kts 60°
2026-05-08 18:00 33.52995 -97.62785 36948 ft 533 kts 60°
2026-05-08 18:00 33.58308 -97.51059 36948 ft 533 kts 60°
2026-05-08 18:01 33.61868 -97.43192 36950 ft 534 kts 59°
2026-05-08 18:01 33.65426 -97.35332 36958 ft 534 kts 59°
2026-05-08 18:02 33.68391 -97.28767 36960 ft 535 kts 60°
2026-05-08 18:02 33.72502 -97.19598 36961 ft 536 kts 61°
2026-05-08 18:03 33.76073 -97.11623 36963 ft 536 kts 60°
2026-05-08 18:03 33.79596 -97.03745 36967 ft 536 kts 61°
2026-05-08 18:04 33.83130 -96.95820 36968 ft 536 kts 61°
2026-05-08 18:04 33.86646 -96.87930 36976 ft 537 kts 60°
2026-05-08 18:05 33.90171 -96.79991 36977 ft 537 kts 60°
2026-05-08 18:05 33.93695 -96.72071 36978 ft 537 kts 60°
2026-05-08 18:06 33.97207 -96.64143 36978 ft 537 kts 60°
2026-05-08 18:06 34.00743 -96.56137 36981 ft 538 kts 60°
2026-05-08 18:07 34.04197 -96.48260 36975 ft 537 kts 60°
2026-05-08 18:07 34.07660 -96.40316 36967 ft 537 kts 61°
2026-05-08 18:08 34.10944 -96.32258 36953 ft 537 kts 63°
2026-05-08 18:08 34.14202 -96.24126 36950 ft 537 kts 63°
2026-05-08 18:09 34.17465 -96.16011 36949 ft 537 kts 63°
2026-05-08 18:09 34.20742 -96.07868 36951 ft 539 kts 63°
2026-05-08 18:10 34.24003 -95.99753 36949 ft 539 kts 63°
2026-05-08 18:10 34.27278 -95.91604 36946 ft 539 kts 63°
2026-05-08 18:11 34.30552 -95.83430 36949 ft 540 kts 63°
2026-05-08 18:11 34.33766 -95.75373 36949 ft 540 kts 63°
2026-05-08 18:12 34.37029 -95.67185 36956 ft 540 kts 63°
2026-05-08 18:12 34.40277 -95.59006 36956 ft 541 kts 63°
2026-05-08 18:13 34.43557 -95.50730 36951 ft 542 kts 63°
2026-05-08 18:13 34.46824 -95.42467 36955 ft 542 kts 63°
2026-05-08 18:14 34.50114 -95.34152 36948 ft 542 kts 64°
2026-05-08 18:14 34.53359 -95.25912 36947 ft 543 kts 64°
2026-05-08 18:15 34.56604 -95.17625 36950 ft 544 kts 64°
2026-05-08 18:15 34.59858 -95.09294 36956 ft 545 kts 64°
2026-05-08 18:16 34.63087 -95.01018 36954 ft 545 kts 63°
2026-05-08 18:16 34.66325 -94.92693 36956 ft 544 kts 64°
2026-05-08 18:17 34.69575 -94.84323 36956 ft 545 kts 64°
2026-05-08 18:17 34.72445 -94.75805 36960 ft 545 kts 69°
2026-05-08 18:18 34.75083 -94.67178 36960 ft 546 kts 70°
2026-05-08 18:18 34.77728 -94.58504 36958 ft 546 kts 70°
2026-05-08 18:19 34.80380 -94.49851 36956 ft 546 kts 69°
2026-05-08 18:19 34.83030 -94.41189 36954 ft 546 kts 69°
2026-05-08 18:20 34.85673 -94.32542 36950 ft 546 kts 69°
2026-05-08 18:20 34.88320 -94.23871 36963 ft 547 kts 70°
2026-05-08 18:21 34.90953 -94.15202 36963 ft 547 kts 70°
2026-05-08 18:21 34.93585 -94.06511 36962 ft 547 kts 70°
2026-05-08 18:22 34.96194 -93.97856 36959 ft 546 kts 69°
2026-05-08 18:22 34.98820 -93.89132 36970 ft 546 kts 69°
2026-05-08 18:23 35.01429 -93.80413 36978 ft 548 kts 69°
2026-05-08 18:23 35.04031 -93.71709 36982 ft 548 kts 70°
2026-05-08 18:24 35.06636 -93.62953 36979 ft 549 kts 69°
2026-05-08 18:24 35.09225 -93.54227 36969 ft 549 kts 69°
2026-05-08 18:25 35.11840 -93.45406 36955 ft 549 kts 69°
2026-05-08 18:25 35.14442 -93.36591 36955 ft 550 kts 69°
2026-05-08 18:26 35.17046 -93.27791 36957 ft 551 kts 70°
2026-05-08 18:26 35.19643 -93.18961 36961 ft 551 kts 70°
2026-05-08 18:27 35.21783 -93.11637 36961 ft 551 kts 70°
2026-05-08 18:27 35.24799 -93.01308 36963 ft 551 kts 70°
2026-05-08 18:28 35.27368 -92.92451 36961 ft 552 kts 70°
2026-05-08 18:28 35.29919 -92.83629 36954 ft 553 kts 71°
2026-05-08 18:29 35.32479 -92.74728 36944 ft 553 kts 70°
2026-05-08 18:29 35.35028 -92.65891 36947 ft 553 kts 70°
2026-05-08 18:30 35.37580 -92.57004 36942 ft 553 kts 70°
2026-05-08 18:30 35.40115 -92.48155 36959 ft 554 kts 70°
2026-05-08 18:31 35.42668 -92.39212 36962 ft 554 kts 70°
2026-05-08 18:31 35.45190 -92.30339 36959 ft 554 kts 70°
2026-05-08 18:32 35.47724 -92.21418 36960 ft 555 kts 70°
2026-05-08 18:32 35.50263 -92.12440 36963 ft 555 kts 70°
2026-05-08 18:33 35.52780 -92.03495 36962 ft 555 kts 70°
2026-05-08 18:33 35.55298 -91.94522 36954 ft 556 kts 70°
2026-05-08 18:34 35.57783 -91.85543 36949 ft 555 kts 71°
2026-05-08 18:34 35.60187 -91.76502 36954 ft 556 kts 71°
2026-05-08 18:35 35.62586 -91.67454 36968 ft 556 kts 71°
2026-05-08 18:35 35.64962 -91.58448 36967 ft 556 kts 71°
2026-05-08 18:36 35.67342 -91.49419 36966 ft 556 kts 71°
2026-05-08 18:36 35.69720 -91.40399 36964 ft 556 kts 71°
2026-05-08 18:37 35.72104 -91.31290 36952 ft 556 kts 72°
2026-05-08 18:37 35.74432 -91.22335 36953 ft 556 kts 72°
2026-05-08 18:38 35.76788 -91.13229 36958 ft 556 kts 72°
2026-05-08 18:38 35.79132 -91.04162 36960 ft 556 kts 72°
2026-05-08 18:39 35.81473 -90.95094 36963 ft 556 kts 72°
2026-05-08 18:39 35.83810 -90.86037 36968 ft 556 kts 72°
2026-05-08 18:40 35.86142 -90.76952 36980 ft 556 kts 72°
2026-05-08 18:40 35.88469 -90.67860 36983 ft 556 kts 72°
2026-05-08 18:41 35.90784 -90.58752 36985 ft 556 kts 72°
2026-05-08 18:41 35.93100 -90.49615 36987 ft 557 kts 71°
2026-05-08 18:42 35.95401 -90.40502 36976 ft 557 kts 72°
2026-05-08 18:42 35.97713 -90.31356 36976 ft 557 kts 73°
2026-05-08 18:43 36.00001 -90.22225 36979 ft 557 kts 72°
2026-05-08 18:43 36.02298 -90.13056 36985 ft 557 kts 72°
2026-05-08 18:44 36.04572 -90.03931 36994 ft 558 kts 72°
2026-05-08 18:44 36.06875 -89.94663 36984 ft 559 kts 72°
2026-05-08 18:45 36.09154 -89.85465 36987 ft 559 kts 72°
2026-05-08 18:45 36.11428 -89.76259 36981 ft 559 kts 72°
2026-05-08 18:46 36.13685 -89.67048 36978 ft 559 kts 72°
2026-05-08 18:46 36.15924 -89.57901 36981 ft 560 kts 72°
2026-05-08 18:47 36.18174 -89.48682 36984 ft 560 kts 72°
2026-05-08 18:47 36.20413 -89.39452 36984 ft 561 kts 72°
2026-05-08 18:48 36.22649 -89.30196 36977 ft 560 kts 72°
2026-05-08 18:48 36.24865 -89.21006 36985 ft 561 kts 72°
2026-05-08 18:49 36.27094 -89.11716 36989 ft 562 kts 72°
2026-05-08 18:49 36.29261 -89.02470 36990 ft 562 kts 75°
2026-05-08 18:50 36.31132 -88.93117 36991 ft 563 kts 76°
2026-05-08 18:50 36.32929 -88.83678 36996 ft 562 kts 77°
2026-05-08 18:51 36.34723 -88.74313 36988 ft 563 kts 76°
2026-05-08 18:51 36.36534 -88.64851 36988 ft 563 kts 76°
2026-05-08 18:52 36.38337 -88.55411 36993 ft 563 kts 76°
2026-05-08 18:52 36.40126 -88.46019 36993 ft 563 kts 76°
2026-05-08 18:53 36.41913 -88.36558 36996 ft 564 kts 76°
2026-05-08 18:53 36.43707 -88.27072 36994 ft 565 kts 76°
2026-05-08 18:54 36.45480 -88.17632 36994 ft 564 kts 77°
2026-05-08 18:54 36.47246 -88.08146 36991 ft 565 kts 77°
2026-05-08 18:55 36.49889 -87.93882 36989 ft 566 kts 76°
2026-05-08 18:56 36.51644 -87.84364 36993 ft 567 kts 76°
2026-05-08 18:56 36.53392 -87.74828 36991 ft 567 kts 76°
2026-05-08 18:57 36.55152 -87.65227 36999 ft 567 kts 76°
2026-05-08 18:57 36.56889 -87.55668 37005 ft 566 kts 77°
2026-05-08 18:58 36.58616 -87.46107 37012 ft 567 kts 77°
2026-05-08 18:58 36.60338 -87.36518 37014 ft 566 kts 77°
2026-05-08 18:59 36.62024 -87.26945 37013 ft 567 kts 78°
2026-05-08 18:59 36.63625 -87.17298 37011 ft 567 kts 78°
2026-05-08 19:00 36.65200 -87.07698 37007 ft 567 kts 78°
2026-05-08 19:00 36.66774 -86.98061 37010 ft 567 kts 78°
2026-05-08 19:01 36.68330 -86.88498 37014 ft 566 kts 78°
2026-05-08 19:01 36.69889 -86.78874 37008 ft 566 kts 78°
2026-05-08 19:02 36.71431 -86.69336 37008 ft 567 kts 77°
2026-05-08 19:02 36.72991 -86.59664 37008 ft 566 kts 78°
2026-05-08 19:03 36.74522 -86.50069 37001 ft 567 kts 78°
2026-05-08 19:03 36.76048 -86.40451 37003 ft 568 kts 78°
2026-05-08 19:04 36.77580 -86.30775 37006 ft 567 kts 78°
2026-05-08 19:04 36.79094 -86.21186 37011 ft 568 kts 79°
2026-05-08 19:05 36.80598 -86.11532 37012 ft 568 kts 79°
2026-05-08 19:05 36.82098 -86.01894 37016 ft 567 kts 78°
2026-05-08 19:06 36.83586 -85.92268 37017 ft 567 kts 78°
2026-05-08 19:06 36.85072 -85.82628 37015 ft 566 kts 78°
2026-05-08 19:07 36.86546 -85.73012 37010 ft 567 kts 78°
2026-05-08 19:07 36.88009 -85.63346 37002 ft 568 kts 78°
2026-05-08 19:08 36.89474 -85.53638 36998 ft 567 kts 78°
2026-05-08 19:08 36.90923 -85.44022 36997 ft 567 kts 78°
2026-05-08 19:09 36.92376 -85.34290 36996 ft 566 kts 78°
2026-05-08 19:09 36.93809 -85.24651 36997 ft 568 kts 78°
2026-05-08 19:10 36.95242 -85.14988 36997 ft 567 kts 79°
2026-05-08 19:10 36.96673 -85.05258 36999 ft 569 kts 79°
2026-05-08 19:11 36.98079 -84.95600 37006 ft 567 kts 78°
2026-05-08 19:11 36.99480 -84.85898 37008 ft 567 kts 78°
2026-05-08 19:12 37.00882 -84.76215 37016 ft 567 kts 78°
2026-05-08 19:12 37.02274 -84.66522 37017 ft 567 kts 79°
2026-05-08 19:13 37.03648 -84.56835 37014 ft 566 kts 78°
2026-05-08 19:13 37.05019 -84.47166 37010 ft 567 kts 78°
2026-05-08 19:14 37.06383 -84.37464 37011 ft 567 kts 79°
2026-05-08 19:14 37.07737 -84.27760 37001 ft 567 kts 79°
2026-05-08 19:15 37.09592 -84.18166 37018 ft 565 kts 70°
2026-05-08 19:15 37.11897 -84.08765 37021 ft 565 kts 70°
2026-05-08 19:16 37.14178 -83.99355 37021 ft 565 kts 70°
2026-05-08 19:16 37.16414 -83.89957 37031 ft 566 kts 70°
2026-05-08 19:17 37.18621 -83.80563 37027 ft 565 kts 70°
2026-05-08 19:17 37.20841 -83.71104 37020 ft 565 kts 70°
2026-05-08 19:18 37.23035 -83.61710 37021 ft 566 kts 70°
2026-05-08 19:18 37.25236 -83.52223 37018 ft 565 kts 70°
2026-05-08 19:19 37.27430 -83.42763 37022 ft 566 kts 70°
2026-05-08 19:19 37.29608 -83.33310 37031 ft 566 kts 70°
2026-05-08 19:20 37.31790 -83.23832 37025 ft 567 kts 71°
2026-05-08 19:20 37.33949 -83.14362 37031 ft 566 kts 71°
2026-05-08 19:21 37.36097 -83.04903 37024 ft 565 kts 71°
2026-05-08 19:21 37.38242 -82.95424 37023 ft 566 kts 70°
2026-05-08 19:22 37.40389 -82.85909 37014 ft 565 kts 71°
2026-05-08 19:22 37.42526 -82.76416 37011 ft 565 kts 70°
2026-05-08 19:23 37.44650 -82.66937 37018 ft 565 kts 71°
2026-05-08 19:23 37.46766 -82.57441 37021 ft 565 kts 71°
2026-05-08 19:24 37.48867 -82.47974 37021 ft 565 kts 70°
2026-05-08 19:24 37.50977 -82.38451 37036 ft 565 kts 70°
2026-05-08 19:25 37.53075 -82.28948 37015 ft 565 kts 70°
2026-05-08 19:25 37.55161 -82.19478 37027 ft 565 kts 70°
2026-05-08 19:26 37.57239 -82.09961 37013 ft 563 kts 70°
2026-05-08 19:26 37.59307 -82.00446 37013 ft 564 kts 71°
2026-05-08 19:27 37.61366 -81.90923 37005 ft 564 kts 70°
2026-05-08 19:27 37.63417 -81.81404 37004 ft 564 kts 70°
2026-05-08 19:28 37.65469 -81.71878 37002 ft 564 kts 71°
2026-05-08 19:28 37.67503 -81.62347 37016 ft 564 kts 71°
2026-05-08 19:29 37.69517 -81.52851 37016 ft 563 kts 71°
2026-05-08 19:29 37.71530 -81.43336 37004 ft 562 kts 71°
2026-05-08 19:30 37.73547 -81.33804 37016 ft 563 kts 71°
2026-05-08 19:30 37.75551 -81.24244 37024 ft 564 kts 71°
2026-05-08 19:31 37.77483 -81.14680 37029 ft 565 kts 75°
2026-05-08 19:31 37.78647 -81.04864 37036 ft 568 kts 83°
2026-05-08 19:32 37.79274 -80.94893 37032 ft 568 kts 84°
2026-05-08 19:32 37.79875 -80.84972 37022 ft 569 kts 84°
2026-05-08 19:33 37.80513 -80.75081 37016 ft 568 kts 83°
2026-05-08 19:33 37.81158 -80.65143 37030 ft 569 kts 83°
2026-05-08 19:34 37.81796 -80.55217 37033 ft 568 kts 84°
2026-05-08 19:34 37.82428 -80.45248 37032 ft 568 kts 83°
2026-05-08 19:35 37.83046 -80.35342 37039 ft 568 kts 83°
2026-05-08 19:35 37.83658 -80.25407 37030 ft 568 kts 84°
2026-05-08 19:36 37.84254 -80.15459 37023 ft 567 kts 84°
2026-05-08 19:36 37.84837 -80.05569 37019 ft 567 kts 84°
2026-05-08 19:37 37.85419 -79.95609 37019 ft 567 kts 84°
2026-05-08 19:37 37.85990 -79.85730 37023 ft 567 kts 84°
2026-05-08 19:38 37.86559 -79.75771 37015 ft 567 kts 84°
2026-05-08 19:38 37.87004 -79.65886 37014 ft 566 kts 85°
2026-05-08 19:39 37.87559 -79.55941 37002 ft 566 kts 83°
2026-05-08 19:39 37.88193 -79.46012 36811 ft 565 kts 83°
2026-05-08 19:40 37.88802 -79.36110 36929 ft 567 kts 83°
2026-05-08 19:40 37.89391 -79.26187 36966 ft 567 kts 83°
2026-05-08 19:41 37.89964 -79.16200 37004 ft 568 kts 84°
2026-05-08 19:41 37.90530 -79.06200 37008 ft 568 kts 84°
2026-05-08 19:42 37.91079 -78.96291 37018 ft 568 kts 84°
2026-05-08 19:42 37.91626 -78.86307 37013 ft 567 kts 84°
2026-05-08 19:43 37.92165 -78.76334 37001 ft 567 kts 84°
2026-05-08 19:43 37.92699 -78.66385 37013 ft 567 kts 84°
2026-05-08 19:44 37.93214 -78.56480 37001 ft 567 kts 84°
2026-05-08 19:44 37.93727 -78.46498 37003 ft 567 kts 84°
2026-05-08 19:45 37.94237 -78.36552 37005 ft 566 kts 84°
2026-05-08 19:45 37.94735 -78.26621 36994 ft 566 kts 85°
2026-05-08 19:46 37.95223 -78.16622 37003 ft 566 kts 84°
2026-05-08 19:46 37.95927 -78.01756 37008 ft 566 kts 84°
2026-05-08 19:47 37.96390 -77.91816 36987 ft 566 kts 84°
2026-05-08 19:47 37.96851 -77.81824 36986 ft 565 kts 84°
2026-05-08 19:48 37.97308 -77.71860 36993 ft 566 kts 84°
2026-05-08 19:48 37.97743 -77.61944 36987 ft 565 kts 84°
2026-05-08 19:49 37.98179 -77.51968 36979 ft 566 kts 84°
2026-05-08 19:49 37.98605 -77.42015 36974 ft 566 kts 85°
2026-05-08 19:50 37.99017 -77.32077 36975 ft 565 kts 85°
2026-05-08 19:50 37.99422 -77.22120 36973 ft 566 kts 85°
2026-05-08 19:51 37.99817 -77.12152 36977 ft 566 kts 85°
2026-05-08 19:51 38.00210 -77.02197 36975 ft 566 kts 85°
2026-05-08 19:52 38.00594 -76.92192 36990 ft 566 kts 85°
2026-05-08 19:52 38.00970 -76.82188 37000 ft 565 kts 85°
2026-05-08 19:53 38.01335 -76.72305 37000 ft 565 kts 85°
2026-05-08 19:53 38.01700 -76.62365 37001 ft 566 kts 85°
2026-05-08 19:54 38.02045 -76.52389 37005 ft 564 kts 85°
2026-05-08 19:54 38.02375 -76.42511 37015 ft 564 kts 85°
2026-05-08 19:55 38.02707 -76.32594 37011 ft 564 kts 85°
2026-05-08 19:55 38.03030 -76.22703 37015 ft 564 kts 86°
2026-05-08 19:56 38.03347 -76.12772 37019 ft 564 kts 85°
2026-05-08 19:56 38.03645 -76.02850 37018 ft 563 kts 85°
2026-05-08 19:57 38.03939 -75.92957 37015 ft 564 kts 85°
2026-05-08 19:57 38.05202 -75.83329 37012 ft 549 kts 63°
2026-05-08 19:58 38.06824 -75.79058 37021 ft 536 kts 49°
2026-05-08 19:58 38.08992 -75.75288 37020 ft 518 kts 38°
2026-05-08 19:58 38.11512 -75.72116 37022 ft 503 kts 28°
2026-05-08 19:58 38.14242 -75.69445 37026 ft 493 kts 22°
2026-05-08 19:59 38.19872 -75.64436 37023 ft 493 kts 21°
2026-05-08 19:59 38.25472 -75.59463 37022 ft 491 kts 21°
2026-05-08 20:00 38.31032 -75.54485 37019 ft 492 kts 22°
2026-05-08 20:00 38.36633 -75.49426 37016 ft 492 kts 22°
2026-05-08 20:01 38.42268 -75.44314 37016 ft 492 kts 22°
2026-05-08 20:01 38.47839 -75.39246 37008 ft 492 kts 22°
2026-05-08 20:02 38.53372 -75.34200 37003 ft 491 kts 23°
2026-05-08 20:02 38.58969 -75.29087 36996 ft 491 kts 22°
2026-05-08 20:03 38.64518 -75.24002 37003 ft 491 kts 23°
2026-05-08 20:03 38.70126 -75.18845 36985 ft 493 kts 24°
2026-05-08 20:04 38.75597 -75.13563 36992 ft 492 kts 25°
2026-05-08 20:04 38.81034 -75.08234 36978 ft 493 kts 25°
2026-05-08 20:05 38.86441 -75.02919 36989 ft 492 kts 25°
2026-05-08 20:05 38.91877 -74.97568 37003 ft 494 kts 25°
2026-05-08 20:06 38.97349 -74.92170 36731 ft 494 kts 25°
2026-05-08 20:06 39.00053 -74.89497 36091 ft 494 kts 25°
2026-05-08 20:06 39.02779 -74.86799 35356 ft 497 kts 25°
2026-05-08 20:07 39.05513 -74.84088 34692 ft 495 kts 25°
2026-05-08 20:07 39.08233 -74.81384 33921 ft 493 kts 25°
2026-05-08 20:07 39.10886 -74.78677 32982 ft 497 kts 27°
2026-05-08 20:07 39.13573 -74.75825 31930 ft 499 kts 28°
2026-05-08 20:08 39.16225 -74.72963 31108 ft 495 kts 29°
2026-05-08 20:08 39.18743 -74.70226 30349 ft 491 kts 29°
2026-05-08 20:08 39.21067 -74.67696 29536 ft 485 kts 29°
2026-05-08 20:08 39.23620 -74.64919 29010 ft 477 kts 30°
2026-05-08 20:09 39.26162 -74.62156 28642 ft 474 kts 30°
2026-05-08 20:09 39.28648 -74.59453 28380 ft 472 kts 30°
2026-05-08 20:09 39.31166 -74.56717 28068 ft 475 kts 30°
2026-05-08 20:09 39.33706 -74.53960 27243 ft 479 kts 30°
2026-05-08 20:10 39.36241 -74.51194 26703 ft 474 kts 30°
2026-05-08 20:10 39.38744 -74.48457 26174 ft 469 kts 30°
2026-05-08 20:10 39.41193 -74.45783 25643 ft 464 kts 30°
2026-05-08 20:10 39.43659 -74.43091 25064 ft 459 kts 30°
2026-05-08 20:11 39.46102 -74.40432 24511 ft 454 kts 30°
2026-05-08 20:11 39.48474 -74.37845 23992 ft 448 kts 30°
2026-05-08 20:11 39.50860 -74.35239 23481 ft 443 kts 30°
2026-05-08 20:11 39.53195 -74.32682 23002 ft 438 kts 31°
2026-05-08 20:12 39.55527 -74.30125 22522 ft 432 kts 31°
2026-05-08 20:12 39.57776 -74.27655 22053 ft 426 kts 31°
2026-05-08 20:12 39.60032 -74.25176 21583 ft 421 kts 31°
2026-05-08 20:12 39.62263 -74.22798 21122 ft 410 kts 26°
2026-05-08 20:13 39.64631 -74.20892 20669 ft 398 kts 19°
2026-05-08 20:13 39.67072 -74.19185 20220 ft 401 kts 18°
2026-05-08 20:13 39.69535 -74.17478 19785 ft 400 kts 19°
2026-05-08 20:13 39.71963 -74.15756 19352 ft 398 kts 20°
2026-05-08 20:14 39.74381 -74.14005 18916 ft 396 kts 20°
2026-05-08 20:14 39.76766 -74.12255 18483 ft 393 kts 21°
2026-05-08 20:14 39.79141 -74.10500 18047 ft 390 kts 21°
2026-05-08 20:14 39.81484 -74.08760 17630 ft 387 kts 22°
2026-05-08 20:15 39.83823 -74.07011 17199 ft 385 kts 22°
2026-05-08 20:15 39.86150 -74.05272 16739 ft 381 kts 22°
2026-05-08 20:15 39.88471 -74.03536 16273 ft 379 kts 22°
2026-05-08 20:15 39.90789 -74.01807 15802 ft 376 kts 22°
2026-05-08 20:16 39.93086 -74.00091 15330 ft 371 kts 22°
2026-05-08 20:16 39.95322 -73.98415 14913 ft 368 kts 22°
2026-05-08 20:16 39.97564 -73.96729 14492 ft 366 kts 23°
2026-05-08 20:16 39.99770 -73.95067 14075 ft 363 kts 23°
2026-05-08 20:17 40.01964 -73.93419 13659 ft 360 kts 23°
2026-05-08 20:17 40.04148 -73.91778 13243 ft 357 kts 23°
2026-05-08 20:17 40.06269 -73.90173 12834 ft 354 kts 23°
2026-05-08 20:17 40.08392 -73.88571 12422 ft 351 kts 23°
2026-05-08 20:18 40.10512 -73.86970 12004 ft 348 kts 23°
2026-05-08 20:18 40.12598 -73.85390 11599 ft 346 kts 22°
2026-05-08 20:18 40.14691 -73.83839 11179 ft 342 kts 24°
2026-05-08 20:18 40.16729 -73.82317 10775 ft 340 kts 24°
2026-05-08 20:19 40.18796 -73.80731 10370 ft 339 kts 24°
2026-05-08 20:19 40.20842 -73.79170 9943 ft 336 kts 24°
2026-05-08 20:19 40.22894 -73.77613 9514 ft 334 kts 25°
2026-05-08 20:19 40.24898 -73.76099 9113 ft 333 kts 24°
2026-05-08 20:20 40.26909 -73.74570 8700 ft 332 kts 24°
2026-05-08 20:20 40.28889 -73.73063 8331 ft 326 kts 24°
2026-05-08 20:20 40.30839 -73.71589 7969 ft 321 kts 24°
2026-05-08 20:20 40.32745 -73.70142 7619 ft 314 kts 24°
2026-05-08 20:21 40.34613 -73.68720 7266 ft 308 kts 24°
2026-05-08 20:21 40.36448 -73.67323 6923 ft 302 kts 24°
2026-05-08 20:21 40.38261 -73.65945 6593 ft 296 kts 24°
2026-05-08 20:21 40.40001 -73.64620 6290 ft 290 kts 24°
2026-05-08 20:22 40.41733 -73.63307 6017 ft 284 kts 24°
2026-05-08 20:22 40.43421 -73.61995 5736 ft 277 kts 25°
2026-05-08 20:22 40.45066 -73.60754 5443 ft 267 kts 24°
2026-05-08 20:22 40.46637 -73.59551 5149 ft 257 kts 24°
2026-05-08 20:23 40.48154 -73.58388 4878 ft 247 kts 24°
2026-05-08 20:23 40.49597 -73.57280 4607 ft 237 kts 24°
2026-05-08 20:23 40.51003 -73.56211 4339 ft 226 kts 24°
2026-05-08 20:23 40.52338 -73.55198 4136 ft 213 kts 21°
2026-05-08 20:24 40.53654 -73.54742 3908 ft 186 kts 348°
2026-05-08 20:24 40.54794 -73.55296 3665 ft 173 kts 319°
2026-05-08 20:24 40.55576 -73.56475 3395 ft 169 kts 298°
2026-05-08 20:24 40.56157 -73.57799 3128 ft 169 kts 298°
2026-05-08 20:25 40.56765 -73.59138 2905 ft 170 kts 299°
2026-05-08 20:25 40.57376 -73.60456 2692 ft 171 kts 298°
2026-05-08 20:25 40.57992 -73.61807 2471 ft 171 kts 298°
2026-05-08 20:25 40.58593 -73.63136 2262 ft 170 kts 298°
2026-05-08 20:26 40.59197 -73.64476 2040 ft 169 kts 298°
2026-05-08 20:26 40.59774 -73.65747 1814 ft 155 kts 297°
2026-05-08 20:26 40.60297 -73.66905 1618 ft 139 kts 297°
2026-05-08 20:26 40.60778 -73.67975 1423 ft 133 kts 296°
2026-05-08 20:27 40.61245 -73.69008 1262 ft 132 kts 297°
2026-05-08 20:27 40.61715 -73.70057 1089 ft 132 kts 296°
2026-05-08 20:27 40.62179 -73.71105 905 ft 132 kts 297°
2026-05-08 20:27 40.62659 -73.72127 711 ft 131 kts 296°
2026-05-08 20:28 40.63116 -73.73154 558 ft 131 kts 298°
2026-05-08 20:28 40.63580 -73.74183 381 ft 131 kts 297°
2026-05-08 20:28 40.64048 -73.75214 202 ft 129 kts 296°
2026-05-08 20:28 40.64504 -73.76224 37 ft 127 kts 298°
2026-05-08 20:29 40.64905 -73.77106 22 ft 89 kts 300°
2026-05-08 20:29 40.65139 -73.77619 22 ft 47 kts 300°
2026-05-08 20:29 40.65272 -73.77908 22 ft 27 kts 301°
2026-05-08 20:29 40.65314 -73.78072 22 ft 11 kts 269°
2026-05-08 20:30 40.65303 -73.78143 22 ft 6 kts 215°
2026-05-08 20:30 40.65267 -73.78142 22 ft 1 kts 157°
2026-05-08 20:30 40.65264 -73.78141 22 ft 1 kts 156°
2026-05-08 20:30 40.65245 -73.78127 22 ft 5 kts 140°
2026-05-08 20:31 40.65209 -73.78054 22 ft 13 kts 120°
2026-05-08 20:31 40.65146 -73.77917 22 ft 20 kts 121°
2026-05-08 20:31 40.65067 -73.77743 22 ft 23 kts 120°
2026-05-08 20:31 40.64983 -73.77557 22 ft 23 kts 121°
2026-05-08 20:32 40.64899 -73.77373 22 ft 22 kts 120°
2026-05-08 20:32 40.64846 -73.77307 22 ft 7 kts 195°
2026-05-08 20:32 40.64795 -73.77343 22 ft 8 kts 209°
2026-05-08 20:32 40.64746 -73.77380 22 ft 7 kts 212°
2026-05-08 20:33 40.64702 -73.77422 22 ft 7 kts 217°
2026-05-08 20:33 40.64664 -73.77444 22 ft 4 kts 188°
2026-05-08 20:33 40.64643 -73.77447 22 ft 1 kts 191°
2026-05-08 20:33 40.64635 -73.77450 22 ft 0 kts 191°
2026-05-08 20:34 40.64632 -73.77451 22 ft 0 kts 192°